DW0333 Tranby-Lier NO current weather conditions

sailwx.info

Wind from 038 at 2 knots

Air temperature 16.7° C
Dewpoint 13.8° C

Last reported at 2016-Jul-30 15:51 UTC.
Time now 2016-Jul-30 16:52 UTC

Location: N 59°50' E 010°17'.
View on Google Maps.

See reports from other nearby stations

  
Tides and Currents Weather Stations Pressure Air Temp Water Temp Dewpoint Dewpoint Depression Visibility Wind Speed Wind Dir Waves Ship Positions
date/time (UTC)wind fromknots sea level pressurealtimeterstation pressurevisibilityair tempwater tempwave heightnotes
2016-Jul-30 15:51 038 2 16.7
2016-Jul-30 15:34 102 2 16.7
2016-Jul-30 15:19 067 1 16.1
2016-Jul-30 15:04 081 1 16.7
2016-Jul-30 14:48 113 3 16.7
2016-Jul-30 14:33 086 2 16.7
2016-Jul-30 14:18 119 3 16.1
2016-Jul-30 14:03 194 3 16.1
2016-Jul-30 13:47 152 4 17.2
2016-Jul-30 13:32 139 6 19.4
2016-Jul-30 13:17 138 6 20.0
2016-Jul-30 13:02 179 3 19.4
2016-Jul-30 12:46 212 3 18.9
2016-Jul-30 12:32 158 3 18.9
2016-Jul-30 12:16 236 3 18.9
2016-Jul-30 12:02 225 1 18.3
2016-Jul-30 11:46 039 2 17.8
2016-Jul-30 11:32 054 0 17.2
2016-Jul-30 11:16 086 0 17.8
2016-Jul-30 11:02 052 1 17.8
2016-Jul-30 10:46 077 2 17.8
2016-Jul-30 10:32 183 1 18.3
2016-Jul-30 10:16 180 2 18.3
2016-Jul-30 09:58 069 1 17.2
2016-Jul-30 09:43 177 0 16.1
2016-Jul-30 09:28 301 16.1
2016-Jul-30 09:13 302 1 16.1
2016-Jul-30 08:57 320 1 16.1
2016-Jul-30 08:42 284 0 16.1
2016-Jul-30 08:27 306 0 15.6
2016-Jul-30 08:11 317 0 15.0
2016-Jul-30 07:56 317 0 14.4
2016-Jul-30 07:41 252 1 13.9
2016-Jul-30 07:26 227 0 13.9
2016-Jul-30 07:11 310 13.3
2016-Jul-30 06:56 310 1 13.3
2016-Jul-30 06:41 281 13.9
2016-Jul-30 06:26 280 13.3
2016-Jul-30 06:11 278 12.8
2016-Jul-30 05:56 234 12.2
2016-Jul-30 05:41 221 12.2
2016-Jul-30 05:24 222 0 12.2
2016-Jul-30 05:08 179 0 12.2
2016-Jul-30 04:53 175 12.2
2016-Jul-30 04:38 175 11.7
2016-Jul-30 04:23 195 11.7
2016-Jul-30 04:07 196 11.7
2016-Jul-30 03:52 196 11.7
2016-Jul-30 03:37 196 11.7
2016-Jul-30 03:21 196 0 11.7
2016-Jul-30 03:06 196 11.7
2016-Jul-30 02:51 197 11.7
2016-Jul-30 02:36 197 11.7
2016-Jul-30 02:21 197 12.2
2016-Jul-30 02:06 186 0 12.2
2016-Jul-30 01:51 184 0 12.2
2016-Jul-30 01:36 195 2 12.2
2016-Jul-30 01:21 142 0 12.2
2016-Jul-30 01:04 244 1 12.2
2016-Jul-30 00:51 150 0 12.2
2016-Jul-30 00:34 135 1 12.2
2016-Jul-30 00:18 137 1 12.2
2016-Jul-30 00:04 143 2 12.2
2016-Jul-29 23:48 124 2 12.2
2016-Jul-29 23:33 129 3 12.2
2016-Jul-29 23:18 078 2 12.2
2016-Jul-29 23:09 146 2 12.2
2016-Jul-29 23:01 111 2 12.2
2016-Jul-29 22:52 143 3 12.2
2016-Jul-29 22:41 125 4 12.8
2016-Jul-29 22:32 137 2 12.8
2016-Jul-29 22:23 173 3 12.8
2016-Jul-29 22:16 156 3 12.8
2016-Jul-29 22:07 178 4 12.8
2016-Jul-29 22:00 077 4 12.8
2016-Jul-29 21:51 093 3 12.8
2016-Jul-29 21:42 133 3 12.8
2016-Jul-29 21:32 036 1 12.8
2016-Jul-29 21:25 050 0 12.8
2016-Jul-29 21:15 073 1 12.8
2016-Jul-29 20:41 054 1 12.8
2016-Jul-29 19:41 061 0 12.8
2016-Jul-29 18:58 073 12.8
2016-Jul-29 18:43 074 0 12.8
2016-Jul-29 18:27 108 12.8
2016-Jul-29 18:12 202 12.8
2016-Jul-29 17:57 198 12.8
2016-Jul-29 17:42 198 12.8
2016-Jul-29 17:26 197 12.8
2016-Jul-29 17:11 198 0 12.8
2016-Jul-29 16:56 194 1 12.8
2016-Jul-29 16:41 146 2 13.3
2016-Jul-29 16:26 183 2 13.3
2016-Jul-29 16:11 147 1 13.3
2016-Jul-29 15:56 175 2 13.3
2016-Jul-29 15:41 119 0 13.3
2016-Jul-29 15:26 120 2 13.3
2016-Jul-29 15:11 110 2 13.3
2016-Jul-29 14:54 119 2 13.9
2016-Jul-29 14:41 109 3 13.9
2016-Jul-29 14:24 154 6 15.0
2016-Jul-29 14:08 154 5 16.1
2016-Jul-29 13:53 133 4 16.1
2016-Jul-29 13:38 163 3 16.1
2016-Jul-29 13:23 148 4 16.7
2016-Jul-29 13:08 192 5 16.7
2016-Jul-29 12:52 138 4 16.1
2016-Jul-29 12:37 136 4 16.7
2016-Jul-29 12:22 136 5 17.2
2016-Jul-29 12:06 125 4 17.2
2016-Jul-29 11:51 125 6 17.8
2016-Jul-29 11:36 166 5 18.3
2016-Jul-29 11:21 183 5 17.2
2016-Jul-29 11:06 148 5 16.1
2016-Jul-29 10:52 120 4 15.6
2016-Jul-29 10:36 143 4 16.1
2016-Jul-29 10:21 144 3 15.6
2016-Jul-29 10:06 161 3 15.6
2016-Jul-29 09:49 132 3 15.6
2016-Jul-29 09:34 145 2 15.6
2016-Jul-29 09:21 138 3 15.6
2016-Jul-29 09:04 098 2 15.0
2016-Jul-29 08:48 105 3 15.0
2016-Jul-29 08:33 113 1 15.0
2016-Jul-29 08:17 099 1 15.0
2016-Jul-29 08:03 074 3 14.4
2016-Jul-29 07:47 112 2 14.4
2016-Jul-29 07:32 080 2 14.4
2016-Jul-29 07:16 114 1 14.4
2016-Jul-29 07:02 091 1 13.9
2016-Jul-29 06:46 042 0 13.9
2016-Jul-29 06:32 042 0 13.3
2016-Jul-29 06:16 042 13.3
2016-Jul-29 06:02 042 1 13.3
2016-Jul-29 05:46 034 0 13.3
2016-Jul-29 05:32 033 0 13.3
2016-Jul-29 05:16 024 0 12.2
2016-Jul-29 05:02 024 11.7
2016-Jul-29 04:44 021 1 11.7
2016-Jul-29 04:29 341 0 11.7
2016-Jul-29 04:13 330 11.1
2016-Jul-29 03:58 329 11.1
2016-Jul-29 03:43 329 0 11.1
2016-Jul-29 03:28 317 0 11.1
2016-Jul-29 03:12 317 2 11.7
2016-Jul-29 02:57 308 2 11.7
2016-Jul-29 02:42 318 2 11.7
2016-Jul-29 02:27 313 2 11.7
2016-Jul-29 02:11 306 1 11.7
2016-Jul-29 01:56 315 1 11.7
2016-Jul-29 01:41 304 1 12.2
2016-Jul-29 01:26 310 1 12.2
2016-Jul-29 01:11 310 1 12.2
2016-Jul-29 00:57 310 1 12.2
2016-Jul-29 00:41 310 1 11.7
2016-Jul-29 00:26 302 1 11.7
2016-Jul-29 00:11 267 0 12.2
2016-Jul-28 23:56 254 0 12.2
2016-Jul-28 23:41 198 12.2
2016-Jul-28 23:26 198 0 12.2
2016-Jul-28 23:08 178 0 12.2
2016-Jul-28 22:53 178 12.8
2016-Jul-28 22:38 181 1 12.8
2016-Jul-28 22:22 169 0 12.8
2016-Jul-28 22:07 148 1 12.8
2016-Jul-28 21:52 173 0 12.8
2016-Jul-28 21:37 194 1 13.3
2016-Jul-28 21:21 188 1 13.3
2016-Jul-28 21:06 186 2 13.3
2016-Jul-28 20:51 192 0 13.3
2016-Jul-28 20:36 222 1 13.3
2016-Jul-28 20:21 140 1 13.3
2016-Jul-28 20:06 131 1 13.3
2016-Jul-28 19:51 130 1 13.9
2016-Jul-28 19:36 135 1 13.9
2016-Jul-28 19:21 126 0 13.9
2016-Jul-28 19:04 127 1 14.4
2016-Jul-28 18:51 146 2 14.4
2016-Jul-28 18:34 161 1 14.4
2016-Jul-28 18:18 108 1 15.0
2016-Jul-28 18:04 123 1 15.0
2016-Jul-28 17:53 189 0 15.0
2016-Jul-28 17:33 202 4 15.6
2016-Jul-28 17:17 200 5 16.1
2016-Jul-28 17:03 158 4 17.2
2016-Jul-28 16:47 177 6 17.8
2016-Jul-28 16:32 226 6 17.8
2016-Jul-28 16:17 237 6 17.8
2016-Jul-28 16:02 169 6 18.3